RH
75 68 59 56 56 61 67 71 71 70 71 68 71 60 68 68 62 56 49 53 53 52 51 52 49 48 48 55 66 62 54 57 57 52 51 55 55 54 61 63 61 63 76
78 76 78 65 62 58 57 61 70 71 67 66 75 71 69 78 71 65 62 57 62 53 52 51 54 60 59 62 74 69 65 65 62 56 50 60 62 65 65 64 71 80 81
63 73 84 85 76 65 59 55 56 65 67 72 69 69 73 77 66 70 58 58 60 67 58 55 54 56 53 55 59 61 61 58 55 53 51 52 55 68 71 66 73 82 85
56 60 70 83 85 81 69 63 56 56 64 69 74 73 72 74 68 61 60 60 60 53 53 53 51 55 60 53 52 56 57 57 56 59 60 57 57 59 62 64 67 69 75
52 61 75 83 88 87 91 82 73 60 57 62 72 75 71 63 61 60 61 57 57 58 57 54 53 51 53 57 58 59 64 68 65 62 60 60 57 56 59 61 64 68 73
53 63 74 72 87 84 86 86 94 81 71 60 65 77 73 65 59 57 57 57 56 61 61 61 63 61 64 67 66 66 66 68 64 67 65 67 69 69 69 72 77 78 78
60 64 74 78 75 89 81 79 86 86 87 77 70 67 71 60 57 56 58 57 58 57 65 68 67 65 67 70 70 70 69 71 72 70 69 70 70 71 72 76 80 78 75
58 63 69 77 80 79 79 70 82 90 86 88 87 79 72 68 64 60 57 58 60 61 59 61 66 67 66 65 64 63 65 66 65 64 64 66 69 70 71 72 73 73 72
54 59 64 67 70 77 82 83 88 91 87 87 89 85 79 75 72 67 67 65 64 64 66 65 62 61 63 63 64 65 65 64 64 65 67 68 68 71 71 71 73 74 72
41 46 50 56 61 65 71 80 85 84 81 87 87 84 86 86 80 80 82 79 73 70 68 68 73 76 78 77 75 75 73 73 74 72 72 71 70 72 71 69 71 72 74
45 46 45 47 52 56 66 77 84 81 84 90 89 88 88 95 94 94 93 91 86 84 85 84 86 90 88 86 84 84 82 80 78 79 81 81 82 84 86 85 87 85 86
45 45 44 38 39 45 52 66 80 84 86 89 90 93 94 95 94 90 88 88 85 82 82 84 86 85 90 90 92 94 92 90 90 94 92 92 93 92 92 96 97 98 97
43 43 39 39 37 41 50 60 71 84 92 92 91 92 92 90 86 82 75 72 78 85 87 86 89 89 92 92 95 96 98 98 94 94 95 98 99 99 98 97 96 94 92
40 40 39 36 37 39 46 54 61 67 73 82 88 91 87 84 78 75 75 72 77 81 88 95 96 94 96 94 89 89 91 91 89 87 90 89 88 85 84 83 82 84 83
38 39 42 40 37 36 37 44 54 63 66 72 77 80 82 83 82 79 77 75 76 76 76 78 81 83 83 79 76 75 75 72 69 68 69 72 73 73 75 74 70 70 68
38 40 41 41 42 39 38 43 48 56 62 68 69 74 76 81 80 78 78 75 72 68 66 64 62 60 58 59 61 61 62 63 64 65 66 67 68 69 65 60 56 53 48
31 34 37 35 41 42 44 44 46 52 55 56 58 62 68 71 72 73 72 71 70 70 71 70 66 64 63 62 67 67 66 65 63 58 56 54 50 46 40 40 38 39 36
28 32 35 34 38 38 41 43 45 50 53 55 58 60 64 68 73 74 69 71 70 69 67 65 61 59 57 58 55 51 45 43 41 38 37 35 32 32 31 32 32 32 32
30 33 35 36 38 36 39 42 44 51 54 53 53 57 58 61 65 69 70 69 66 62 57 55 51 46 42 35 30 28 27 28 28 28 26 27 28 31 32 32 32 33 33
33 35 34 36 36 37 39 40 45 46 48 52 54 55 57 61 64 65 63 60 58 53 50 43 33 24 20 18 18 20 21 23 25 26 27 27 27 30 32 33 34 35 36
30 30 31 31 35 36 39 42 44 44 47 46 44 45 49 49 49 49 50 48 41 29 25 24 22 20 21 21 22 24 25 25 26 27 26 28 31 33 34 35 36 37 38
28 27 28 29 33 35 35 35 36 37 36 37 35 33 30 29 26 24 24 23 23 24 26 26 26 25 25 26 24 28 30 31 32 32 33 34 35 33 36 37 38 38 39
28 29 31 31 29 29 29 29 29 29 30 30 28 27 26 23 23 24 26 27 27 27 27 27 26 28 31 33 34 32 34 35 37 38 38 37 38 39 39 40 40 40 40
31 31 31 31 32 32 29 30 34 34 33 36 37 37 37 37 36 34 33 32 32 33 35 35 35 37 40 44 46 44 44 43 42 42 42 42 40 41 41 42 40 41 44
30 32 31 30 31 30 27 27 31 31 32 33 33 35 35 35 34 35 35 37 39 42 45 48 49 51 53 54 54 52 48 48 48 47 45 42 42 43 44 45 46 47 49
31 32 31 31 32 31 33 31 31 32 34 36 37 38 36 40 41 42 45 48 49 52 57 57 59 60 62 63 62 60 57 54 51 50 45 42 45 50 52 51 51 53 55